Weather History for KSPB - October, 2012

Change the Weather History Date:

Friday, October 5, 2012

  Actual Average Record
Temperature  
Mean Temperature 55 °F -  
Max Temperature 74 °F - 86 °F (2014)
Min Temperature 36 °F - 36 °F (2012)
Degree Days  
Heating Degree Days 10    
Month to date heating degree days 33  
Since 1 July heating degree days 191  
Cooling Degree Days 0    
Month to date cooling degree days 6  
Year to date cooling degree days 245  
Growing Degree Days 5 (Base 50)    
Moisture  
Dew Point 27 °F    
Average Humidity 42    
Maximum Humidity 70    
Minimum Humidity 13    
Precipitation  
Precipitation 0.00 in - 0.21 in (2004)
Month to date precipitation 0.00  
Year to date precipitation 31.00  
Sea Level Pressure  
Sea Level Pressure 30.18 in    
Wind  
Wind Speed 5 mph (North)    
Max Wind Speed 21 mph    
Max Gust Speed 26 mph    
Visibility 10 miles    
Events      
T = Trace of Precipitation, MM = Missing Value Source: NWS Daily Summary

Daily Weather History Graph

Daily Weather History Graph

Search for Another Location

Airport or City:

Trip Planner

Search our weather history database for the weather conditions in past years. The results will help you decide how hot, cold, wet, or windy it might be!

Date:

Astronomy

Oct. 05, 2012 Rise Set
Actual Time 7:15 AM PDT 6:42 PM PDT
Civil Twilight 6:45 AM PDT 7:12 PM PDT
Nautical Twilight 6:11 AM PDT 7:46 PM PDT
Astronomical Twilight 5:36 AM PDT 8:21 PM PDT
Moon 9:56 PM PDT (10/5) 12:42 PM PDT (10/5)
Length of Visible Light 12h 26m
Length of Day
11h 27m
Waning Gibbous, 73% of the Moon is Illuminated
Oct 5
Waning Gibbous
Oct 8
Last Quarter
Oct 15
New
Oct 21
First Quarter
Oct 29
Full

Hourly Weather History & Observations

Time (PDT) Temp. Windchill Dew Point Humidity Pressure Visibility Wind Dir Wind Speed Gust Speed Precip Events Conditions
12:53 AM 42.1 °F 39.2 °F 30.0 °F 62% 30.21 in 10.0 mi West 4.6 mph - N/A   Clear
1:53 AM 39.9 °F 37.8 °F 30.0 °F 68% 30.20 in 10.0 mi West 3.5 mph - N/A   Clear
2:53 AM 41.0 °F - 30.0 °F 65% 30.20 in 10.0 mi Calm Calm - N/A   Clear
3:53 AM 39.0 °F - 28.9 °F 67% 30.20 in 10.0 mi Calm Calm - N/A   Clear
4:53 AM 39.0 °F - 28.9 °F 67% 30.20 in 10.0 mi Calm Calm - N/A   Clear
5:53 AM 37.9 °F - 28.0 °F 68% 30.20 in 10.0 mi Calm Calm - N/A   Clear
6:53 AM 37.0 °F - 28.0 °F 70% 30.20 in 10.0 mi Calm Calm - N/A   Clear
7:53 AM 39.9 °F - 28.9 °F 65% 30.21 in 10.0 mi Calm Calm - N/A   Clear
8:53 AM 51.1 °F - 33.1 °F 50% 30.22 in 10.0 mi Calm Calm - N/A   Clear
9:53 AM 60.1 °F - 30.0 °F 32% 30.22 in 10.0 mi North 3.5 mph - N/A   Clear
10:53 AM 64.0 °F - 32.0 °F 30% 30.21 in 10.0 mi North 4.6 mph - N/A   Clear
11:53 AM 69.1 °F - 26.1 °F 20% 30.20 in 10.0 mi ENE 5.8 mph - N/A   Clear
12:53 PM 72.0 °F - 21.0 °F 15% 30.19 in 10.0 mi ESE 16.1 mph - N/A   Clear
1:53 PM 73.0 °F - 19.9 °F 14% 30.16 in 10.0 mi East 15.0 mph - N/A   Clear
2:53 PM 73.0 °F - 19.0 °F 13% 30.15 in 10.0 mi East 8.1 mph - N/A   Clear
3:53 PM 73.0 °F - 19.9 °F 14% 30.14 in 10.0 mi ENE 13.8 mph - N/A   Clear
4:53 PM 72.0 °F - 21.9 °F 15% 30.13 in 10.0 mi ENE 12.7 mph - N/A   Clear
5:53 PM 68.0 °F - 25.0 °F 20% 30.14 in 10.0 mi ENE 6.9 mph - N/A   Clear
6:53 PM 61.0 °F - 25.0 °F 25% 30.14 in 10.0 mi ENE 4.6 mph - N/A   Clear
7:53 PM 50.0 °F - 30.9 °F 48% 30.16 in 6.0 mi West 3.5 mph - N/A   Haze
8:53 PM 48.0 °F - 30.0 °F 50% 30.17 in 7.0 mi West 5.8 mph - N/A   Clear
9:53 PM 45.0 °F 43.5 °F 30.0 °F 56% 30.17 in 10.0 mi West 3.5 mph - N/A   Clear
10:53 PM 44.1 °F 42.5 °F 28.9 °F 55% 30.17 in 10.0 mi West 3.5 mph - N/A   Clear
11:53 PM 43.0 °F 40.3 °F 28.9 °F 58% 30.18 in 10.0 mi West 4.6 mph - N/A   Clear